Вернуться в каталог

BLOCK DM R/B

АктивенHEO
NORAD 26769·ROCKET BODY·🇷🇺 Russia

Запущен May 15, 2001 с Baikonur Cosmodrome

Loading…

Ближайшие Пролёты (ближайшие 24 часа)

TLE

УстаревающийSource: Space-Track

Эпоха: Aug 28, 2026, 08:07 UTC

1 26769U 01019D   26240.33876935 -.00000166  00000-0  00000+0 0  9992
2 26769  18.6010 356.3026 5174064  15.3933   1.6952  1.86699251172497

Отслеживайте BLOCK DM R/B в реальном времени с AllMySat

Download on the App Store